When you browse on this site, cookies collect data to enhance your experience and personalize the content and advertising you see.
Visit our Privacy Policy to learn more. By continuing to use the site, you agree to this use of cookies and data.
  • In Sweden
  • List of Countries
  • For 7 days
  • Water Temperature
  • Weather Map
  • Weather Widgets
  • user-avatar
    Login

    Hourly Weather Bron

    Today, 24 August, Saturday

    Time Temperature Precipitation Wind Pressure Humidity
    00:00 +17°C° 0 mm 0 mps 747 mmHg 79%
    01:00 +16°C° 0 mm 0 mps 747 mmHg 81%
    02:00 +16°C° 0 mm 0 mps 747 mmHg 82%
    03:00 +16°C° 0 mm 1 mps 747 mmHg 83%
    04:00 +16°C° 0 mm 0 mps 747 mmHg 82%
    05:00 +16°C° 0 mm 0 mps 747 mmHg 82%
    06:00 +16°C° 0 mm 0 mps 747 mmHg 81%
    07:00 +21°C° 0 mm 1 mps 747 mmHg 74%
    08:00 +23°C° 0 mm 1 mps 747 mmHg 66%
    09:00 +25°C° 0 mm 1 mps 747 mmHg 59%
    10:00 +27°C° 0 mm 1 mps 746 mmHg 53%
    11:00 +29°C° 0 mm 1 mps 746 mmHg 48%
    12:00 +28°C° 0 mm 0 mps 746 mmHg 42%
    13:00 +31°C° 0 mm 1 mps 746 mmHg 40%
    14:00 +31°C° 0 mm 1 mps 745 mmHg 38%
    15:00 +31°C° 0 mm 1 mps 745 mmHg 37%
    16:00 +29°C° 0 mm 1 mps 745 mmHg 43%
    17:00 +27°C° 0 mm 1 mps 745 mmHg 50%
    18:00 +24°C° 0 mm 0 mps 745 mmHg 57%
    19:00 +22°C° 0 mm 0 mps 745 mmHg 59%
    20:00 +21°C° 0 mm 0 mps 746 mmHg 60%
    21:00 +20°C° 0 mm 0 mps 746 mmHg 62%
    22:00 +19°C° 0 mm 0 mps 746 mmHg 62%
    23:00 +19°C° 0 mm 0 mps 746 mmHg 63%

    Tomorrow, 25 August, Sunday

    Time Temperature Precipitation Wind Pressure Humidity
    00:00 +20°C° 0 mm 1 mps 746 mmHg 63%
    01:00 +20°C° 0 mm 1 mps 746 mmHg 64%
    02:00 +19°C° 0 mm 1 mps 746 mmHg 65%
    03:00 +19°C° 0 mm 1 mps 746 mmHg 66%
    04:00 +19°C° 0 mm 1 mps 746 mmHg 66%
    05:00 +17°C° 0 mm 0 mps 745 mmHg 67%
    06:00 +17°C° 0 mm 0 mps 745 mmHg 67%
    07:00 +20°C° 0 mm 0 mps 746 mmHg 61%
    08:00 +22°C° 0 mm 0 mps 746 mmHg 56%
    09:00 +25°C° 0 mm 0 mps 746 mmHg 50%
    10:00 +28°C° 0 mm 1 mps 746 mmHg 46%
    11:00 +30°C° 0 mm 1 mps 746 mmHg 42%
    12:00 +31°C° 0 mm 1 mps 745 mmHg 39%
    13:00 +32°C° 0 mm 1 mps 745 mmHg 38%
    14:00 +32°C° 0 mm 1 mps 745 mmHg 38%
    15:00 +32°C° 0 mm 1 mps 745 mmHg 37%
    16:00 +30°C° 0 mm 1 mps 745 mmHg 43%
    17:00 +28°C° 0 mm 1 mps 745 mmHg 49%
    18:00 +27°C° 0 mm 1 mps 745 mmHg 54%
    19:00 +25°C° 0 mm 1 mps 745 mmHg 56%
    20:00 +24°C° 0 mm 1 mps 746 mmHg 57%
    21:00 +23°C° 0 mm 1 mps 746 mmHg 59%
    22:00 +22°C° 0 mm 1 mps 746 mmHg 61%
    23:00 +19°C° 0 mm 0 mps 746 mmHg 63%

    Day after tomorrow, 26 August, Monday

    Time Temperature Precipitation Wind Pressure Humidity
    00:00 +19°C° 0 mm 0 mps 746 mmHg 66%
    01:00 +18°C° 0 mm 0 mps 745 mmHg 68%
    02:00 +18°C° 0 mm 0 mps 745 mmHg 70%
    03:00 +17°C° 0 mm 0 mps 745 mmHg 72%
    04:00 +17°C° 0 mm 0 mps 745 mmHg 72%
    05:00 +17°C° 0 mm 0 mps 745 mmHg 72%
    06:00 +18°C° 0 mm 0 mps 745 mmHg 73%
    07:00 +20°C° 0 mm 0 mps 745 mmHg 66%
    08:00 +24°C° 0 mm 1 mps 745 mmHg 59%
    09:00 +26°C° 0 mm 1 mps 745 mmHg 53%
    10:00 +28°C° 0 mm 1 mps 745 mmHg 48%
    11:00 +30°C° 0 mm 1 mps 745 mmHg 44%
    12:00 +31°C° 0 mm 1 mps 745 mmHg 40%
    13:00 +32°C° 0 mm 1 mps 744 mmHg 39%
    14:00 +32°C° 0 mm 1 mps 744 mmHg 38%
    15:00 +32°C° 0 mm 1 mps 744 mmHg 38%
    16:00 +30°C° 0 mm 1 mps 744 mmHg 44%
    17:00 +29°C° 0 mm 1 mps 744 mmHg 49%
    18:00 +25°C° 0 mm 0 mps 744 mmHg 55%
    19:00 +26°C° 0 mm 1 mps 744 mmHg 56%
    20:00 +25°C° 0 mm 1 mps 744 mmHg 57%
    21:00 +24°C° 0 mm 1 mps 745 mmHg 57%
    22:00 +23°C° 0 mm 1 mps 745 mmHg 58%
    23:00 +23°C° 0 mm 1 mps 745 mmHg 59%

    27 August, Tuesday

    Time Temperature Precipitation Wind Pressure Humidity
    00:00 +22°C° 0 mm 1 mps 745 mmHg 60%
    01:00 +22°C° 0 mm 1 mps 745 mmHg 61%
    02:00 +21°C° 0 mm 1 mps 745 mmHg 62%
    03:00 +20°C° 0 mm 2 mps 745 mmHg 63%
    04:00 +21°C° 0 mm 1 mps 745 mmHg 64%
    05:00 +21°C° 0 mm 1 mps 745 mmHg 65%
    06:00 +21°C° 0 mm 1 mps 745 mmHg 66%
    07:00 +23°C° 0 mm 1 mps 745 mmHg 61%
    08:00 +25°C° 0 mm 2 mps 745 mmHg 56%
    09:00 +27°C° 0 mm 2 mps 745 mmHg 52%
    10:00 +29°C° 0 mm 2 mps 745 mmHg 48%
    11:00 +30°C° 0 mm 2 mps 745 mmHg 45%
    12:00 +32°C° 0 mm 2 mps 745 mmHg 41%
    13:00 +32°C° 0 mm 2 mps 744 mmHg 42%
    14:00 +32°C° 0 mm 2 mps 744 mmHg 42%
    15:00 +32°C° 0 mm 2 mps 744 mmHg 42%
    16:00 +30°C° 0 mm 2 mps 744 mmHg 47%
    17:00 +29°C° 0 mm 2 mps 744 mmHg 52%
    18:00 +27°C° 0 mm 2 mps 744 mmHg 57%
    19:00 +26°C° 0.3 mm 2 mps 744 mmHg 64%
    20:00 +24°C° 0.3 mm 3 mps 745 mmHg 70%
    21:00 +22°C° 0.3 mm 3 mps 745 mmHg 77%
    22:00 +21°C° 1.8 mm 3 mps 745 mmHg 82%
    23:00 +21°C° 1.8 mm 3 mps 746 mmHg 87%

    28 August, Wednesday

    Time Temperature Precipitation Wind Pressure Humidity
    00:00 +20°C° 1.8 mm 3 mps 746 mmHg 92%
    01:00 +20°C° 1.2 mm 2 mps 745 mmHg 92%
    02:00 +20°C° 1.2 mm 2 mps 745 mmHg 92%
    03:00 +20°C° 1.2 mm 1 mps 745 mmHg 92%
    04:00 +20°C° 0 mm 1 mps 745 mmHg 91%
    05:00 +21°C° 0 mm 1 mps 745 mmHg 91%
    06:00 +19°C° 0 mm 0 mps 745 mmHg 91%
    07:00 +20°C° 0 mm 0 mps 745 mmHg 83%
    08:00 +22°C° 0 mm 0 mps 745 mmHg 76%
    09:00 +23°C° 0 mm 0 mps 745 mmHg 69%
    10:00 +26°C° 0.1 mm 1 mps 744 mmHg 65%
    11:00 +28°C° 0.1 mm 1 mps 744 mmHg 60%
    12:00 +29°C° 0.1 mm 1 mps 744 mmHg 55%
    13:00 +29°C° 0.2 mm 1 mps 744 mmHg 55%
    14:00 +29°C° 0.2 mm 1 mps 743 mmHg 55%
    15:00 +29°C° 0.2 mm 1 mps 743 mmHg 55%
    16:00 +27°C° 0.2 mm 1 mps 743 mmHg 61%
    17:00 +26°C° 0.2 mm 1 mps 743 mmHg 67%
    18:00 +25°C° 0.2 mm 1 mps 744 mmHg 73%
    19:00 +24°C° 0.2 mm 1 mps 744 mmHg 76%
    20:00 +23°C° 0.2 mm 1 mps 744 mmHg 79%
    21:00 +22°C° 0.2 mm 1 mps 744 mmHg 81%
    22:00 +22°C° 0.2 mm 1 mps 744 mmHg 83%
    23:00 +21°C° 0.2 mm 1 mps 744 mmHg 84%

    29 August, Thursday

    Time Temperature Precipitation Wind Pressure Humidity
    00:00 +21°C° 0.2 mm 1 mps 744 mmHg 86%
    01:00 +20°C° 0 mm 1 mps 744 mmHg 86%
    02:00 +18°C° 0 mm 0 mps 744 mmHg 87%
    03:00 +18°C° 0 mm 0 mps 744 mmHg 87%
    04:00 +18°C° 0 mm 0 mps 744 mmHg 87%
    05:00 +18°C° 0 mm 0 mps 744 mmHg 87%
    06:00 +18°C° 0 mm 0 mps 745 mmHg 86%
    07:00 +22°C° 0 mm 1 mps 745 mmHg 80%
    08:00 +24°C° 0 mm 1 mps 745 mmHg 74%
    09:00 +25°C° 0 mm 2 mps 745 mmHg 68%
    10:00 +26°C° 0.1 mm 2 mps 744 mmHg 65%
    11:00 +27°C° 0.1 mm 2 mps 744 mmHg 61%
    12:00 +28°C° 0.1 mm 3 mps 744 mmHg 58%
    13:00 +29°C° 0.2 mm 3 mps 744 mmHg 58%
    14:00 +29°C° 0.2 mm 3 mps 743 mmHg 58%
    15:00 +29°C° 0.2 mm 3 mps 743 mmHg 57%
    16:00 +28°C° 0.2 mm 3 mps 743 mmHg 62%
    17:00 +27°C° 0.2 mm 2 mps 743 mmHg 67%
    18:00 +25°C° 0.2 mm 2 mps 743 mmHg 72%
    19:00 +24°C° 0 mm 2 mps 744 mmHg 74%
    20:00 +23°C° 0 mm 1 mps 744 mmHg 77%
    21:00 +22°C° 0 mm 1 mps 744 mmHg 79%
    22:00 +22°C° 0 mm 1 mps 744 mmHg 81%
    23:00 +21°C° 0 mm 1 mps 744 mmHg 82%
    Show more